Location: M.A.R.S.Observatory
(35.4031°N, 81.5481°W)
Time: 09:31:01
(UTC-04:00)

SL-8 R/B - Visible Passes

Search period start: 25 March 2017 00:00
Search period end: 04 April 2017 00:00
Orbit: 657 x 668 km, 48.4° (Epoch: 23 March)

Date Brightness Start Highest point End Pass type
(mag) Time Alt. Az. Time Alt. Az. Time Alt. Az.
25 Mar 5.9 05:19:14 13° NNW 05:21:26 18° N 05:24:39 10° NE visible
26 Mar 6.4 04:10:53 15° NNE 04:10:53 15° NNE 04:12:23 10° NE visible
26 Mar 5.7 05:49:19 10° NW 05:53:10 24° NNE 05:57:02 10° ENE visible
27 Mar 5.9 04:40:34 18° N 04:41:09 18° N 04:44:25 10° NE visible
27 Mar 4.9 06:20:11 10° NW 06:24:42 40° NNE 06:29:11 10° E visible
28 Mar 5.7 05:10:21 16° NNW 05:12:53 24° NNE 05:16:48 10° ENE visible
28 Mar 3.8 06:51:08 10° NW 06:55:56 86° NE 07:00:42 10° SE visible
29 Mar 6.3 04:02:15 16° NNE 04:02:15 16° NNE 04:04:11 10° NE visible
29 Mar 4.8 05:40:15 12° NW 05:44:23 42° NNE 05:48:55 10° E visible
30 Mar 5.6 04:32:17 25° NNE 04:32:35 25° NNE 04:36:33 10° ENE visible
30 Mar 3.6 06:10:48 10° NW 06:15:36 88° SW 06:20:21 10° SE visible
31 Mar 4.6 05:02:32 33° NNW 05:04:04 44° NNE 05:08:38 10° ESE visible
31 Mar 4.4 06:42:12 10° WNW 06:46:31 34° SW 06:50:49 10° SSE visible
01 Apr 6.3 03:55:00 16° ENE 03:55:00 16° ENE 03:56:19 10° ENE visible
01 Apr 3.5 05:33:03 32° WNW 05:35:15 83° SW 05:40:02 10° SE visible
01 Apr 4.8 21:26:03 10° SSW 21:28:54 28° S 21:28:54 28° S visible
02 Apr 5.4 04:25:48 29° E 04:25:48 29° E 04:28:21 10° ESE visible
02 Apr 4.4 06:03:52 21° W 06:06:10 32° SW 06:10:22 10° SSE visible
02 Apr 5.4 20:16:47 10° SSE 20:19:20 14° SE 20:21:55 10° E visible
02 Apr 4.0 21:56:32 10° SW 22:00:24 58° SW 22:00:24 58° SW visible
03 Apr 4.8 04:56:55 35° SE 04:56:55 35° SE 04:59:40 10° SE visible
03 Apr 5.6 06:35:13 10° WSW 06:36:49 12° SW 06:38:24 10° SSW visible
03 Apr 4.2 20:45:36 10° SSW 20:50:03 38° SE 20:53:36 15° ENE visible
03 Apr 5.0 22:28:00 10° W 22:31:40 38° WNW 22:31:40 38° WNW visible
